2017 Detroit Decades Dash

Detroit, MI - University of Detroit Mercy
2017-09-30
  • The only race that runs on the University of Detroit Mercy Campus!

Starts on: 2017-09-30
Where: Detroit, MI - University of Detroit Mercy
Categories: 5k Run/Walk Family Fun Run
Description: 5K race which will begin and end on the campus of University of Detroit Mercy and will travel through the neighborhood north of campus.
Overall 5k Run/Walk
name bib rank time pace hometown
Dash Dobar 108 1 00:18:39 06:00 Livonia, MI
Ryan Leahy 104 2 00:18:40 06:01 -, US
McClanahan Brendan 110 3 00:19:39 06:20 Temperance, MI
Timothy Ponkowski 112 4 00:20:42 06:40 Washington, MI
Jarod Hoekstra 106 5 00:20:55 06:44 Royal Oak, MI
Jaime Miettinen 66 6 00:20:58 06:45 Royal Oak, MI
Captain America 111 7 00:21:41 06:59 Royal Oak, MI
Alexandra Palamaru 121 8 00:21:44 07:00 Detroit, MI
Todd Fadoir 109 9 00:21:48 07:01 Huntington Woods, MI
Chris Przybylski 76 10 00:21:51 07:02 -, US
John Chirco 12 11 00:22:09 07:08 Saint Clair Shores, MI
Lalinda Wickramasinghe 3 12 00:23:05 07:26 ROYAL OAK, MI
Chris Clark 75 13 00:23:22 07:32 -, US
Evan Hoye 73 14 00:23:29 07:34 Southfield, MI
Ashley Billings 31 15 00:23:49 07:40 Detroit, MI
Mary Leannais 105 16 00:24:26 07:52 -, US
Justin Pothoof 77 17 00:24:38 07:56 -, US
Nathaniel Nunez 107 18 00:25:13 08:07 -, US
Will Bodrie 37 19 00:25:46 08:18 TRENTON, MI
Pat Repeck 82 20 00:25:47 08:18 HOLLAND, MI
Paul repeck 85 21 00:26:04 08:24 WARREN, MI
Justin Johnson 14 22 00:26:29 08:32 TROY, MI
James Murdoch 18 23 00:26:29 08:32 Allen Park, MI
Timmy Nelson 13 24 00:26:29 08:32 DEARBORN, MI
Pamela Lumetta 102 25 00:26:48 08:38 -, US
Sarah Wong 60 26 00:27:16 08:47 -, US
Kaitlin Lambert 48 27 00:27:51 08:58 -, US
Karie Milam 103 28 00:28:09 09:04 FLAT ROCK, MI
Nichole Taucher 80 29 00:28:10 09:04 FLAT ROCK, MI
Rachel DeWitt 57 30 00:28:14 09:05 CANTON, MI
Nicole Hsieh 33 31 00:28:21 09:08 Grosse Point, MI
Paolina Barker 41 32 00:28:24 09:09 Dearborn, MI
Sarah Helmi 79 33 00:28:38 09:13 -, US
Eric Beaudet 117 34 00:28:42 09:15 Detroit, MI
Christine Clark 53 35 00:28:47 09:16 Chesterfield, MI
Abdulekareem Harunani 126 36 00:28:51 09:17 Rockford, --
Maya Ghandour 125 37 00:28:52 09:18 -, US
Susan Gornall 54 38 00:29:22 09:27 Utica, MI
Ann Chirco 7 39 00:29:33 09:31 Clinton Township, MI
Alexander Repeck 81 40 00:29:43 09:34 Holland, MI
Kaitlyn Repeck 83 41 00:29:46 09:35 Holland, MI
Natalie Wilson 52 42 00:29:54 09:38 -, US
Khashayar Azimi 98 43 00:29:57 09:39 -, US
Brooke Bacquet 97 44 00:30:00 09:40 -, US
Sarah Kosinski 116 45 00:30:10 09:43 -, US
Shelby Koschuck 61 46 00:30:11 09:43 -, US
Maidah Atta 32 47 00:30:14 09:44 Detroit, MI
Laira Sitchon 28 48 00:30:15 09:44 Detroit, MI
Michael Stoller 88 49 00:30:22 09:47 Grosse Pointe Farms, MI
Elias Sergio 59 50 00:30:27 09:48 -, US
Joshua Malenfant 16 51 00:30:50 09:56 ST CLR SHORES, MI
Philip Nelson 42 52 00:30:56 09:58 Dearborn, MI
Stanley Tan 47 53 00:31:15 10:04 Shelby Twp, MI
Elizabeth Mullen 87 54 00:31:30 10:09 -, US
Natalie Vizard 86 55 00:31:31 10:09 -, US
Andrew Heitzhaus 93 56 00:31:31 10:09 -, US
Christina Harris 120 57 00:32:15 10:23 Detroit, MI
Don Wallace 119 58 00:32:33 10:29 Riverview, MI
Yadrianna Acosta-Sojo 67 59 00:32:45 10:33 ANN ARBOR, MI
Steven Nelson 8 60 00:33:34 10:48 TRENTON, MI
Jane Wallace 118 61 00:33:44 10:52 Riverview, MI
Ryan Hunt 68 62 00:34:46 11:12 Ferndale, MI
Ritika Bhatia 27 63 00:34:47 11:12 Windsor, --
Jordan Dempsey 36 64 00:34:48 11:13 Royal Oak, MI
Janet Gibson 44 65 00:34:49 11:13 CLINTON TWP, MI
Karissa Burgos 34 66 00:34:49 11:13 Madison Heights, MI
Anela Avdic 24 67 00:34:54 11:14 Clawson, MI
Cristine Robson 46 68 00:35:00 11:16 Shelby Twp, MI
Matthew Chesley 17 69 00:35:14 11:21 ROCHESTER HLS, MI
Erin Chesley 10 70 00:35:15 11:21 Rochester Hills, MI
Ray Babila 38 71 00:35:25 11:24 -, US
John Wenzel 74 72 00:35:37 11:28 Lapeer, MI
Patel Ashutosh 25 73 00:39:16 12:39 windsor, --
Ashlesha Deshpande 26 74 00:39:17 12:39 Windsor, --
Debra Plowden 71 75 00:39:52 12:50 SOUTHFIELD, MI
Alicia Rinehart 84 76 00:40:12 12:57 MARYSVILLE, MI
Abdiel Ramos 15 77 00:41:05 13:14 DETROIT, MI
Olivia Stavale 19 78 00:41:08 13:15 ST CLR SHORES, MI
Victoria Spallone 2 79 00:41:20 13:19 Mount Clemens, MI
Jacqueline Steele 78 80 00:47:17 15:14 Romulus, MI
Gillian Toler 96 81 00:48:10 15:30 -, US
Pamela Zarkowski 49 82 00:50:35 16:17 -, US
Monica Barbour 21 83 00:50:37 16:18 GROSSE POINTE, MI
Amelia Volkert 100 84 00:50:55 16:24 -, US
Devin Hodell 101 85 00:50:55 16:24 -, US
Erica Eden 99 86 00:50:58 16:25 -, US
Marvin Stevenson 113 87 00:51:00 16:25 Rochester Hills, MI
Morgan Plowden 70 88 00:51:59 16:44 Southfield, MI
Eliana Gosser 123 89 00:52:09 16:48 Rochester, MI
Nelson Gosser 122 90 00:52:11 16:48 Rochester, MI
Taylor Shannon 127 91 00:52:33 16:55 Detroit, MI
Nancy Ponkowski 115 92 00:52:48 17:00 Washington, MI
Kimberly Barbour 22 93 00:52:50 17:01 GROSSE POINTE, MI
Tonya Scott-Effinger 114 94 00:53:33 17:14 Ypsilanti, MI
Richard Plowden 72 95 00:54:32 17:33 Southfield, MI
Sandy Priskey 40 96 00:57:52 18:38 Clinton Township, MI
Hawa Massaquoi Carter 91 97 00:57:53 18:38 Southfield, MI
Essence Gresham 90 98 00:57:53 18:38 -, US
Marlene Nelson 9 99 00:57:54 18:39 Trenton, MI
Jim Priskey 39 100 00:57:57 18:39 CLINTON TWP, MI

Next Page